Meadville, PA

1:01 AM EST on February 21, 2017 (GMT -0500)
Port Meadville

Weather History for KGKJ - February, 2014

Change the Weather History Date:

Tuesday, February 18, 2014

  Actual Average Record
Temperature  
Mean Temperature 29 °F -  
Max Temperature 37 °F 34 °F 64 °F (2017)
Min Temperature 21 °F 16 °F -15 °F (1979)
Degree Days  
Heating Degree Days 36    
Moisture  
Dew Point 22 °F    
Average Humidity 81    
Maximum Humidity 93    
Minimum Humidity 54    
Precipitation  
Precipitation 0.11 in - - ()
Sea Level Pressure  
Sea Level Pressure 29.83 in    
Wind  
Wind Speed 11 mph (SW)    
Max Wind Speed 23 mph    
Max Gust Speed 34 mph    
Visibility 3 miles    
Events Fog , Snow    
Averages and records for this station are not official NWS values.
T = Trace of Precipitation, MM = Missing Value Source: NWS Daily Summary

Daily Weather History Graph

Daily Weather History Graph

Search for Another Location

Airport or City:

Trip Planner

Search our weather history database for the weather conditions in past years. The results will help you decide how hot, cold, wet, or windy it might be!

Date:

Astronomy

Feb. 18, 2014 Rise Set
Actual Time 7:12 AM EST 5:58 PM EST
Civil Twilight 6:43 AM EST 6:26 PM EST
Nautical Twilight 6:11 AM EST 6:58 PM EST
Astronomical Twilight 5:39 AM EST 7:30 PM EST
Moon 9:53 PM EST (2/18) 8:40 AM EST (2/18)
Length of Visible Light 11h 42m
Length of Day
10h 46m
Waning Gibbous, 87% of the Moon is Illuminated
Feb 18
Waning Gibbous
Feb 22
Last Quarter
Mar 1
New
Mar 8
First Quarter
Mar 16
Full

Hourly Weather History & Observations

Time (EST) Temp. Windchill Dew Point Humidity Pressure Visibility Wind Dir Wind Speed Gust Speed Precip Events Conditions
12:21 AM 24.8 °F 17.9 °F 19.4 °F 80% 29.69 in 1.8 mi Variable 5.8 mph 20.7 mph 0.01 in Snow Light Snow
12:34 AM 24.8 °F 15.3 °F 21.2 °F 86% 29.68 in 3.0 mi SE 9.2 mph 24.2 mph 0.01 in Snow Light Snow
12:49 AM 26.6 °F 20.0 °F 21.2 °F 80% 29.69 in 2.5 mi Variable 5.8 mph 23.0 mph 0.01 in Snow Light Snow
12:53 AM 26.1 °F 20.5 °F 21.0 °F 81% 29.74 in 4.0 mi Variable 4.6 mph 23.0 mph 0.01 in Snow Light Snow
1:12 AM 26.6 °F 16.8 °F 23.0 °F 86% 29.68 in 3.0 mi South 10.4 mph 27.6 mph 0.00 in Snow Light Snow
1:26 AM 28.4 °F 21.2 °F 24.8 °F 86% 29.68 in 2.0 mi Variable 6.9 mph 20.7 mph 0.00 in Snow Light Snow
1:42 AM 28.4 °F 20.4 °F 24.8 °F 86% 29.68 in 1.2 mi South 8.1 mph - 0.01 in Snow Light Snow
1:50 AM 28.4 °F 20.4 °F 24.8 °F 86% 29.67 in 1.0 mi South 8.1 mph 18.4 mph 0.02 in Snow Light Snow
1:53 AM 28.9 °F 21.1 °F 26.1 °F 89% 29.72 in 0.8 mi South 8.1 mph - 0.02 in Snow Light Snow
2:04 AM 28.4 °F 19.7 °F 26.6 °F 93% 29.68 in 1.0 mi South 9.2 mph 19.6 mph 0.00 in Snow Light Snow
2:50 AM 30.2 °F 20.2 °F 28.4 °F 93% 29.68 in 0.8 mi SSW 12.7 mph 18.4 mph 0.03 in Snow Light Snow
2:53 AM 30.9 °F 20.7 °F 28.9 °F 92% 29.73 in 0.5 mi SSW 13.8 mph 19.6 mph 0.03 in Fog , Snow Snow
3:05 AM 30.2 °F 19.8 °F 28.4 °F 93% 29.68 in 1.0 mi SW 13.8 mph 26.5 mph 0.01 in Snow Light Snow
3:11 AM 30.2 °F 20.8 °F 28.4 °F 93% 29.68 in 2.0 mi SW 11.5 mph 32.2 mph 0.01 in Snow Light Snow
3:24 AM 30.2 °F 18.5 °F 28.4 °F 93% 29.68 in 1.5 mi SSW 17.3 mph 25.3 mph 0.01 in Snow Light Snow
3:42 AM 30.2 °F 19.3 °F 28.4 °F 93% 29.68 in 1.5 mi SW 15.0 mph 27.6 mph 0.01 in Snow Light Snow
3:53 AM 30.9 °F 22.2 °F 27.0 °F 85% 29.72 in 1.0 mi SW 10.4 mph 24.2 mph 0.01 in Snow Light Snow
4:06 AM 30.2 °F 18.5 °F 26.6 °F 86% 29.68 in 0.8 mi WSW 17.3 mph 28.8 mph 0.00 in Snow Light Snow
4:32 AM 28.4 °F 17.5 °F 26.6 °F 93% 29.68 in 0.2 mi WSW 13.8 mph 24.2 mph 0.01 in Fog , Snow Snow
4:53 AM 28.9 °F 18.6 °F 26.1 °F 89% 29.73 in 0.2 mi WSW 12.7 mph 25.3 mph 0.02 in Fog , Snow Snow
5:25 AM 28.4 °F 15.4 °F 24.8 °F 86% 29.71 in 0.5 mi WSW 19.6 mph 33.4 mph 0.01 in Fog , Snow Snow
5:38 AM 28.4 °F 17.5 °F 24.8 °F 86% 29.72 in 1.0 mi WSW 13.8 mph 24.2 mph 0.01 in Snow Light Snow
5:50 AM 26.6 °F 13.4 °F 24.8 °F 93% 29.73 in 1.2 mi WSW 18.4 mph 29.9 mph 0.01 in Snow Light Snow
5:53 AM 27.0 °F 13.9 °F 24.1 °F 89% 29.78 in 1.0 mi WSW 18.4 mph 25.3 mph 0.01 in Snow Light Snow
6:04 AM 26.6 °F 15.7 °F 24.8 °F 93% 29.74 in 0.8 mi West 12.7 mph 23.0 mph 0.00 in Snow Light Snow
6:35 AM 24.8 °F 9.6 °F 19.4 °F 80% 29.77 in 1.5 mi West 23.0 mph 34.5 mph 0.01 in Snow Light Snow
6:43 AM 24.8 °F 10.7 °F 19.4 °F 80% 29.78 in 1.5 mi West 19.6 mph 34.5 mph 0.01 in Snow Light Snow
6:51 AM 24.8 °F 12.9 °F 19.4 °F 80% 29.78 in 1.8 mi West 13.8 mph 23.0 mph 0.01 in Snow Light Snow
6:53 AM 24.1 °F 11.0 °F 19.9 °F 84% 29.83 in 1.5 mi West 16.1 mph 23.0 mph 0.01 in Snow Light Snow
7:17 AM 24.8 °F 11.9 °F 19.4 °F 80% 29.80 in 3.0 mi WSW 16.1 mph 28.8 mph 0.00 in Snow Light Snow
7:38 AM 24.8 °F 11.1 °F 19.4 °F 80% 29.81 in 1.8 mi West 18.4 mph 23.0 mph 0.00 in Snow Light Snow
7:53 AM 24.1 °F 13.1 °F 18.0 °F 77% 29.88 in 2.0 mi WSW 11.5 mph 24.2 mph 0.00 in Snow Light Snow
8:23 AM 24.8 °F 11.5 °F 19.4 °F 80% 29.85 in 1.8 mi West 17.3 mph 23.0 mph 0.00 in Snow Light Snow
8:34 AM 24.8 °F 16.1 °F 19.4 °F 80% 29.87 in 0.8 mi West 8.1 mph 18.4 mph 0.00 in Snow Light Snow
8:53 AM 23.0 °F 8.0 °F 18.0 °F 81% 29.93 in 1.0 mi West 20.7 mph 26.5 mph 0.00 in Snow Light Snow
9:13 AM 21.2 °F 5.2 °F 17.6 °F 86% 29.89 in 1.0 mi WSW 21.9 mph 29.9 mph 0.00 in Snow Light Snow
9:20 AM 21.2 °F 6.8 °F 17.6 °F 86% 29.89 in 0.8 mi West 17.3 mph 29.9 mph 0.00 in Snow Light Snow
9:32 AM 21.2 °F 6.8 °F 17.6 °F 86% 29.90 in 1.0 mi West 17.3 mph - 0.00 in Snow Light Snow
9:51 AM 21.2 °F 7.8 °F 17.6 °F 86% 29.91 in 2.0 mi West 15.0 mph 25.3 mph 0.00 in Snow Light Snow
9:53 AM 21.9 °F 8.2 °F 17.1 °F 82% 29.97 in 2.0 mi West 16.1 mph 25.3 mph 0.00 in Snow Light Snow
10:20 AM 23.0 °F 9.6 °F 17.6 °F 80% 29.93 in 3.0 mi West 16.1 mph 24.2 mph 0.00 in Snow Light Snow
10:29 AM 23.0 °F 10.1 °F 17.6 °F 80% 29.93 in 2.5 mi West 15.0 mph 23.0 mph 0.00 in Snow Light Snow
10:53 AM 24.1 °F 13.1 °F 18.0 °F 77% 30.00 in 2.5 mi West 11.5 mph 21.9 mph 0.00 in Snow Light Snow
11:25 AM 24.8 °F 11.5 °F 19.4 °F 80% 29.96 in 3.0 mi WSW 17.3 mph 21.9 mph 0.00 in Snow Light Snow
11:53 AM 25.0 °F 12.6 °F 18.0 °F 75% 30.03 in 6.0 mi West 15.0 mph - 0.00 in   Haze
12:27 PM 24.8 °F 13.4 °F 19.4 °F 80% 29.98 in 2.5 mi West 12.7 mph 19.6 mph N/A   Haze
12:37 PM 24.8 °F 16.1 °F 19.4 °F 80% 29.98 in 3.0 mi WSW 8.1 mph 17.3 mph N/A   Haze
12:53 PM 26.1 °F 16.2 °F 19.9 °F 78% 30.04 in 3.0 mi WSW 10.4 mph 18.4 mph N/A   Haze
1:53 PM 28.0 °F 17.5 °F 19.0 °F 69% 30.04 in 10.0 mi WSW 12.7 mph 17.3 mph N/A   Overcast
2:53 PM 28.9 °F 19.8 °F 19.0 °F 67% 30.04 in 10.0 mi SW 10.4 mph 17.3 mph N/A   Mostly Cloudy
3:13 PM 28.4 °F 20.4 °F 19.4 °F 69% 29.98 in 10.0 mi SW 8.1 mph 17.3 mph N/A   Scattered Clouds
3:53 PM 30.0 °F 21.1 °F 19.9 °F 66% 30.03 in 10.0 mi SSW 10.4 mph 17.3 mph N/A   Clear
4:53 PM 30.0 °F 22.4 °F 21.0 °F 69% 30.02 in 9.0 mi SSW 8.1 mph - N/A   Clear
5:53 PM 30.0 °F 26.5 °F 21.9 °F 72% 30.01 in 8.0 mi Variable 3.5 mph - N/A   Clear
6:53 PM 30.0 °F 26.5 °F 23.0 °F 75% 30.02 in 8.0 mi Variable 3.5 mph - N/A   Clear
7:53 PM 32.0 °F 27.5 °F 25.0 °F 75% 29.99 in 8.0 mi Variable 4.6 mph - N/A   Clear
8:53 PM 34.0 °F 31.0 °F 24.1 °F 67% 29.95 in 10.0 mi Variable 3.5 mph - N/A   Clear
9:53 PM 34.0 °F 29.8 °F 24.1 °F 67% 29.94 in 10.0 mi Variable 4.6 mph - N/A   Clear
10:53 PM 37.0 °F 31.0 °F 23.0 °F 57% 29.87 in 10.0 mi South 8.1 mph - N/A   Clear
11:53 PM 37.0 °F 31.0 °F 21.9 °F 54% 29.86 in 10.0 mi South 8.1 mph - N/A   Clear